Zurück zum Katalog

STARLINK-30346

AktivKommunikationVLEO
NORAD 57704·PAYLOAD·🇺🇸 United States

Gestartet Aug 27, 2023 von Cape Canaveral Space Force Station

Loading…

Nächste Überflüge (nächste 24 Stunden)

TLE

AktuellSource: CelesTrak SupGP

Epoche: Sep 14, 2026, 21:14 UTC

1 57704C 23129G   26257.88520833 -.00005995  00000+0 -21738-3 0  2579
2 57704  43.0019 129.1967 0001887 254.3617 348.4203 15.27543241    18

Verfolge STARLINK-30346 in Echtzeit mit AllMySat

Download on the App Store